Home > Weather > Langkawi > Past weeks

Flag for Malaysia Past Weather in Langkawi, Malaysia — Yesterday and Last 2 Weeks

Now
77 °F

Heavy rain. Broken clouds.


Feels Like: 78 °F
Forecast: 77 / 87 °F
Wind: 10 mph from West

Location: Langkawi

Current Time: Aug 25, 2016 at 4:21:20 PM

Latest Report: Aug 25, 2016 at 3:00 PM


Visibility: 0 mi

Pressure: 29.74 "Hg

Humidity: 94%

Dew Point: 75 °F

Location of LangkawiLocation

Past Weather in Langkawi — Graph

°F

Langkawi Temperature Yesterday

Maximum temperature yesterday: 86 °F (at 11:00 AM)
Minimum temperature yesterday: 77 °F (at 7:00 AM)
Average temperature yesterday: 81 °F

High & Low Weather Summary for the Past Weeks

 TemperatureHumidityPressure
High91 °F (Aug 10, 3:00 PM)94% (Aug 12, 8:00 AM)29.89 "Hg (Aug 12, 8:00 AM)
Low75 °F (Aug 25, 7:00 AM)67% (Aug 10, 3:00 PM)29.65 "Hg (Aug 23, 5:00 PM)
Average85 °F79%29.77 "Hg
* Reported Aug 10 3:00 PM — Aug 25 3:00 PM, Langkawi, Weather by CustomWeather, © 2016

Note: Actual official high and low records may vary slightly from our data, if they occured in-between our weather recording intervals... More about our weather records

Advertising

Langkawi Weather History for the Previous 24 Hours

Scroll right to see more
 ConditionsComfort  
Time TempWeatherWind HumidityBarometerVisibility
3:00 PM
Thu, Aug 25
77 °FHeavy rain. Broken clouds.10 mph94%29.74 "Hg1 mi
2:00 PM90 °FBroken clouds.3 mph67%29.74 "HgN/A
1:00 PM88 °FBroken clouds.3 mph70%29.77 "HgN/A
12:00 PM84 °FBroken clouds.1 mph79%29.77 "HgN/A
11:00 AM84 °FBroken clouds.2 mph74%29.80 "HgN/A
10:00 AM81 °FBroken clouds.No wind84%29.80 "HgN/A
9:00 AM77 °FLight rain. Broken clouds.2 mph94%29.80 "HgN/A
8:00 AM75 °FLight rain. More clouds than sun.No wind94%29.77 "Hg4 mi
7:00 AM75 °FLight rain. Partly cloudy.5 mph94%29.77 "Hg4 mi
6:00 AM77 °FLight rain. Mostly cloudy.No wind94%29.71 "HgN/A
5:00 AM77 °FLight rain. Mostly cloudy.3 mph94%29.71 "HgN/A
4:00 AM77 °FLight rain. Mostly cloudy.1 mph94%29.71 "HgN/A
3:00 AM77 °FLight rain. Mostly cloudy.No wind94%29.71 "HgN/A
2:00 AM77 °FLight rain. Partly cloudy.1 mph94%29.71 "HgN/A
1:00 AM77 °FLight rain. Partly cloudy.3 mph94%29.74 "HgN/A
12:00 AM77 °FLight rain. Mostly cloudy.2 mph94%29.74 "Hg4 mi
11:00 PM
Wed, Aug 24
79 °FLight rain. Partly cloudy.No wind89%29.74 "HgN/A
10:00 PM79 °FLight rain. Mostly cloudy.No wind89%29.74 "HgN/A
9:00 PM77 °FLight rain. Mostly cloudy.1 mph94%29.71 "Hg6 mi
8:00 PM79 °FRain. Mostly cloudy.2 mph89%29.71 "Hg2 mi
7:00 PM79 °FLight rain. More clouds than sun.3 mph89%29.68 "Hg4 mi
6:00 PM81 °FLight rain. More clouds than sun.9 mph89%29.65 "Hg4 mi
5:00 PM82 °FBroken clouds.9 mph84%29.65 "HgN/A
4:00 PM81 °FLight rain. Broken clouds.7 mph84%29.68 "Hg6 mi
Weather by CustomWeather, © 2016

See weather overviewHow to use our weather pages